Location: Unspecified
(58.9933°N, 5.6375°E)
Time: 23:03:55
(UTC+02:00)

Resurs 1-4 Rocket - Visible Passes

Search period start: 29 May 2016 00:00
Search period end: 08 June 2016 00:00
Orbit: 800 x 814 km, 98.4° (Epoch: 29 May)

Date Brightness Start Highest point End Pass type
(mag) Time Alt. Az. Time Alt. Az. Time Alt. Az.
29 May 4.4 03:16:42 10° NE 03:20:31 20° E 03:24:19 10° SE visible
30 May 4.6 02:52:58 10° NE 02:55:33 13° E 02:58:08 10° ESE visible
03 Jun 4.6 02:54:35 10° NE 02:57:19 14° E 03:00:03 10° ESE visible
07 Jun 4.6 02:56:12 10° NE 02:59:05 14° E 03:01:56 10° ESE visible
